Regional Weather Roundup
Issued by NWS

Home | Current Version | Previous Version | Graphics & Text | Print | Product List | Glossary On
Versions: 1 2 3 4 5 6 7 8 9 10 11 12 13 14 15 16 17 18 19 20 21 22 23 24 25 26 27 28 29 30 31 32 33 34 35 36 37 38 39 40 41 42 43 44 45 46 47 48 49 50
000
ASUS43 KIND 020659
RWRIN

WEATHER ROUNDUP FOR INDIANA
NATIONAL WEATHER SERVICE INDIANAPOLIS IN
300 AM EDT TUE SEP 02 2014

NOTE: "FAIR" INDICATES FEW OR NO CLOUDS BELOW 12,000 FEET WITH NO
SIGNIFICANT WEATHER AND/OR OBSTRUCTIONS TO VISIBILITY.

* - STATION DOES NOT REPORT WEATHER SUCH AS PRECIPITATION OR FOG.

+ - STATION NOT QUALITY CONTROLLED BY THE NATIONAL WEATHER SERVICE.
    USE DATA WITH CAUTION...ESPECIALLY DEWPOINT AND RELATIVE
    HUMIDITY OBSERVATIONS.

INZ001>003-010>013-019-020-020800-
NORTHWEST INDIANA

CITY           SKY/WX    TMP DP  RH WIND       PRES   REMARKS
KNOX *+        CLOUDY    68  64  88 CALM      29.88S
MONTICELLO +   CLOUDY    70  67  91 SW8       29.90F
VALPARAISO     CLOUDY    70  65  84 W6        29.88F

$$

LMZ046-743>745-020800-
SOUTHERN LAKE MICHIGAN

STATION/POSITION TIME  TEMP WIND        PRES
                       AIR  DIR/SP/G
                 (UTC) (F)  (DEG/KT/KT) (MB)
MICHIGAN CITY    0600   73  200/ 11/ 13   N/A

$$

INZ004-005-014>016-021>024-020800-
NORTH CENTRAL INDIANA

CITY           SKY/WX    TMP DP  RH WIND       PRES   REMARKS
GOSHEN         CLOUDY    70  65  84 SW7       29.90R
SOUTH BEND     CLOUDY    71  65  81 SW8       29.90R

$$

INZ006>009-017-018-025>027-020800-
NORTHEAST INDIANA

CITY           SKY/WX    TMP DP  RH WIND       PRES   REMARKS
ANGOLA *+      CLEAR     70  61  73 SW7       29.91R
FORT WAYNE     MOCLDY    68  65  90 SW7       29.92R

$$

INZ028-029-035-036-043>045-051>053-020800-
WEST CENTRAL INDIANA

CITY           SKY/WX    TMP DP  RH WIND       PRES   REMARKS
GREENCASTLE +  RAIN      70  68  94 SW3       29.99R
LAFAYETTE      LGT RAIN  69  67  93 SW12      29.93R
TERRE HAUTE    TSTM      69  66  90 S5        29.97R

$$

INZ030>032-037>040-046>048-054>057-064-065-020800-
CENTRAL INDIANA

CITY           SKY/WX    TMP DP  RH WIND       PRES   REMARKS
FRANKFORT +    RAIN     N/A N/A N/A SW6       29.97R
INDIANAPOLIS   TSTM      72  68  87 W16       29.95S
-EAGLE CREEK   TSTM      71  66  84 SW9       29.95F
KOKOMO *+      CLOUDY    72  66  83 SW12      29.94R
MT COMFORT *+  CLOUDY    72 N/A N/A W12       29.96F
SHELBYVILLE    CLOUDY    74  71  91 CALM      29.94F

$$

INZ033-034-041-042-049-050-058-059-020800-
EAST CENTRAL INDIANA

CITY           SKY/WX    TMP DP  RH WIND       PRES   REMARKS
MUNCIE         MOCLDY    72  68  87 SW7       29.94F

$$

INZ060-061-067>069-081>083-085>088-020800-
SOUTHWEST INDIANA

CITY           SKY/WX    TMP DP  RH WIND       PRES   REMARKS
EVANSVILLE     CLOUDY    79  71  76 S10       29.95F

$$

INZ062-063-066-070>080-084-089>092-020800-
SOUTH CENTRAL AND SOUTHEAST INDIANA

CITY           SKY/WX    TMP DP  RH WIND       PRES   REMARKS
BLOOMINGTON    TSTM      74  71  91 NW3       29.93F FOG

$$




USA.gov is the U.S. government's official web portal to all federal, state and local government web resources and services.